DSN-3 (KIRAMEKI-3)

Last updated on Sat Sep 05 2026 00:03:07 GMT+0000 (Coordinated Universal Time)

1 61733U 24198A 26247.62444677 -.00000257 00000+0 00000+0 0 9998 2 61733 0.0435 269.9268 0001257 258.1407 184.5490 1.00270936 6711
UTC large
Height (km)
Speed (km/s)
/
Latitude / Longitude
Inclination (degrees)
Orbital Period (minutes)
Azimuth
Elevation
Range (km)
Doppler Factor

Next 0 passes for location: London (51.5072 / 0.1276)

No passes found over London.
DSN-3 (KIRAMEKI-3)